SCP
0 -0 0 -0 -0 0 0 0 -0 -0 -0 -0 -0 -0 -0 -0 -0 -0 0 0 -0 0 0 0 0 0 0 0 0 0 -0 -0 0 0 0 0 0 0 -0 0 0 0 0 0 0 0 0 0 0
0 -0 0 -0 0 0 0 0 -0 0 -0 -0 -0 -0 -0 -0 -0 -0 -0 -0 -0 0 0 0 0 0 0 0 0 0 -0 0 0 0 0 0 0 0 0 0 0 0 0 0 0 0 0 0 0
-0 0 0 0 -0 -0 -0 -0 0 -0 -0 -0 -0 0 0 -0 -0 -0 -0 -0 -0 0 0 0 0 0 -0 -0 0 -0 0 0 0 0 -0 0 -0 0 0 0 0 0 0 0 0 -0 0 0 0
-0 -0 -0 -0 -0 -0 0 0 0 -0 -0 -0 -0 -0 0 0 -0 -0 -0 -0 0 0 -0 0 0 -0 -0 -0 0 -0 -0 -0 -0 -0 -0 -0 -0 -0 -0 -0 0 0 0 0 0 0 0 -0 -0
0 0 0 -0 0 -0 0 0 0 -0 -0 -0 -0 -0 -0 -0 -0 -0 -0 -0 -0 -0 -0 0 -0 -0 -0 -0 -0 -0 -0 -0 -0 -0 -0 -0 -0 -0 -0 -0 -0 -0 -0 0 -0 -0 0 0 -0
0 0 0 0 0 -0 0 -0 0 -0 -0 -0 -0 -0 0 -0 -0 -0 -0 -0 -1 -0 -0 -0 -0 -0 -0 -0 -0 -0 -0 -0 -0 -0 -0 -0 -0 0 0 0 0 0 -0 -0 -0 -0 -0 -0 -0
0 0 0 0 0 -0 0 -0 -0 -0 -0 -0 -0 -0 -0 -0 -0 -0 -0 -1 -0 -0 -0 -0 -0 -0 -0 -0 -0 -0 -0 -0 -0 -0 -0 -0 -0 -0 -0 -0 -0 -0 0 -0 -0 -0 -0 0 0
0 0 -0 0 0 0 0 -0 -0 -0 -0 -0 -0 -0 -0 -0 -0 -0 -0 -0 -0 -0 -0 -0 -0 -0 -0 -0 -0 -0 -0 -0 -0 -0 -0 -0 -0 -0 -0 -0 -0 -0 -0 -0 -0 -0 -0 -0 -0
0 -0 -0 -0 0 0 0 -0 0 -0 -0 0 0 -0 -0 -0 -0 -0 -0 -0 -0 -0 -0 -0 -0 -0 -0 -0 -0 -0 -0 -0 -0 -0 -0 -0 0 0 0 0 -0 0 0 -0 -0 -0 -0 -0 -0
0 0 -0 -0 0 0 0 -0 -0 -0 -0 -0 -0 -0 -0 -0 -0 -0 -0 -0 -0 -0 -0 -0 -0 -0 -0 -0 -0 -0 0 0 0 -0 0 0 0 -0 -0 0 0 0 0 -0 -0 -0 -0 -0 0
0 0 0 0 0 0 -0 -0 -0 0 -0 -0 -0 -0 -0 -0 0 -0 -0 -0 -0 -0 -0 -0 -0 0 -0 -0 -0 0 0 0 0 0 0 -0 0 -0 0 0 -0 -0 0 0 0 -0 0 0 0
0 -0 -0 0 -0 0 0 0 0 -0 -0 -0 -0 -0 0 0 0 -0 -0 -0 -0 -0 -0 -0 -0 -0 -0 -0 0 0 0 0 0 0 -0 -0 -0 -0 0 0 -0 -0 -0 0 0 0 0 0 0
-0 -0 -0 -0 -0 -0 0 0 0 -0 -0 -0 -0 -0 0 0 0 0 0 -0 -0 -0 -0 -0 -0 -0 -0 -0 0 0 0 0 0 0 0 0 0 -0 -0 -0 -0 -0 0 -0 -0 0 0 0 -0
0 -0 0 -0 -0 -0 -0 0 -0 -0 -0 -0 -0 -0 0 -0 0 -0 -0 -0 -0 -0 -0 -0 -0 -0 -0 0 0 -0 -0 -0 0 0 -0 -0 0 0 -0 -0 -0 -0 -0 -0 -0 0 0 0 -0
-0 -0 -0 -0 0 0 -0 0 -0 0 -0 -0 -0 -0 -0 -0 0 -0 -0 -0 -0 -0 -0 -0 -0 -0 -0 -0 0 0 -0 -0 0 0 -0 -0 -0 -0 -0 0 0 0 -0 -0 -0 -0 0 0 -0
0 0 0 0 0 0 0 -0 0 0 0 -0 -0 -0 -0 -0 0 0 0 -0 -0 -0 -0 -0 -0 -0 0 0 0 0 -0 -0 0 0 -0 -0 -0 -0 -0 -0 0 0 -0 -0 -0 0 0 0 -0
0 0 0 -0 0 0 -0 0 0 0 0 0 -0 0 -0 -0 0 0 -0 0 -0 0 -0 -0 -0 -0 -0 -0 -0 0 -0 0 0 0 0 -0 -0 -0 -0 0 0 0 -0 -0 -0 0 0 0 -0
0 0 0 0 -0 -0 -0 -0 -0 0 0 0 0 -0 0 -0 -0 -0 0 -0 -0 -0 -0 0 0 -0 -0 0 0 0 0 0 0 0 0 -0 0 -0 0 0 0 -0 -0 -0 0 0 0 0 0
0 0 -0 0 0 -0 0 0 -0 -0 -0 -0 0 -0 -0 -0 -0 -0 -0 -0 -0 -0 -0 -0 -0 -0 0 0 0 0 0 0 0 0 0 0 -0 -0 -0 0 0 0 0 0 0 0 0 0 0
0 -0 -0 -0 0 0 -0 0 0 0 -0 -0 -0 -0 -0 -0 -0 -0 0 -0 -0 -0 -0 0 -0 -0 0 0 0 0 0 0 0 0 0 0 -0 -0 0 0 0 0 0 0 0 0 0 0 0
0 0 -0 -0 -0 -0 -0 0 -0 -0 -0 -0 -0 -0 -0 -0 -0 -0 -0 -0 -0 -0 0 0 0 1 1 0 0 0 0 0 0 0 0 0 0 -0 0 -0 0 0 0 0 0 0 0 0 0
0 0 -0 -0 -0 -0 -0 0 0 0 0 -0 0 -0 -0 -0 -0 -0 -0 -0 -1 -1 -0 -0 0 1 1 1 1 0 0 0 0 0 0 0 0 -0 0 0 0 0 0 0 0 0 0 0 0
0 0 -0 -0 -0 0 0 0 0 -0 0 0 0 -0 0 -0 -0 -0 -0 -0 -0 -1 -1 -0 0 1 1 1 1 1 0 0 0 0 0 0 0 0 0 0 0 0 0 0 0 0 0 0 0
0 0 0 -0 0 0 0 0 0 0 0 -0 -0 -0 0 0 -0 -0 -0 -0 -0 -1 -1 0 0 1 2 1 1 1 0 0 0 0 0 0 0 0 0 0 0 0 0 0 0 0 0 0 0
0 0 0 0 0 0 0 0 0 0 -0 -0 -0 0 1 0 0 0 0 -0 0 -1 -1 -0 1 2 2 1 1 1 0 0 0 0 0 0 0 0 0 0 0 1 0 0 0 0 0 0 0
0 0 0 -0 0 -0 0 0 0 -0 0 -0 0 -0 -0 0 0 -0 0 0 -0 0 0 1 2 2 2 2 2 1 0 0 0 0 0 0 0 0 0 0 0 1 0 0 0 0 0 0 0
0 0 0 0 0 -0 -0 0 0 0 -0 -0 0 -0 -0 0 -0 -0 0 -0 0 2 3 3 3 2 2 1 1 1 1 1 1 0 0 1 1 1 0 1 1 1 0 0 0 0 0 0 0
0 0 0 0 0 -0 0 -0 0 0 0 0 0 0 0 0 0 0 -0 -0 0 1 3 4 3 2 1 1 1 1 1 0 0 1 0 0 0 0 0 1 0 1 0 0 0 0 0 0 0
-0 0 0 0 0 0 0 0 0 0 0 -0 0 -0 0 0 0 0 0 0 1 2 3 3 3 1 1 0 0 0 0 0 0 0 0 1 0 0 0 0 0 0 0 0 0 0 -0 0 -0
0 -0 0 0 0 0 0 0 0 0 0 0 -0 -0 -0 0 0 1 0 1 1 2 2 1 1 0 0 0 0 0 0 0 0 0 0 0 0 0 0 0 0 0 0 0 0 0 0 0 0
Wind_Speed_500mb
21 40 43 38 11 7 8 8 17 27 26 54 54 35 31 35 5 11 60 45 56 60 58 55 51 48 43 40 36 32 32 31 29 26 26 24 23 26 27 26 24 24 26 28 31 30 31 34 39
25 38 28 13 8 6 12 13 23 27 45 61 49 47 33 18 47 70 67 47 57 62 59 56 51 46 41 38 34 30 30 29 27 23 24 26 26 28 26 23 22 21 24 27 26 27 27 32 37
29 19 20 6 3 9 12 19 19 32 47 43 20 35 21 30 62 63 69 53 59 59 57 53 50 45 40 35 31 29 28 26 26 26 27 26 24 26 26 22 21 21 22 23 25 26 29 32 36
6 13 13 8 16 14 10 12 20 30 35 49 40 23 37 53 68 71 57 50 52 52 54 53 47 40 35 32 29 28 28 28 28 25 23 23 23 23 23 20 19 19 19 19 19 18 19 23 30
16 9 5 4 13 14 6 21 28 32 41 45 66 40 55 58 74 67 59 48 54 47 52 48 40 36 34 32 30 30 29 26 24 24 22 22 20 19 16 14 13 14 14 14 12 11 13 16 21
16 2 2 5 20 33 9 27 26 39 43 52 61 53 32 70 76 65 56 66 47 42 48 46 41 37 34 33 32 30 29 24 21 19 17 17 15 14 12 9 6 5 5 5 7 10 10 11 13
27 5 8 12 12 14 8 36 13 3 49 41 52 34 44 63 71 63 56 75 60 49 47 43 42 38 34 32 31 27 23 20 18 17 15 14 15 15 14 12 9 1 3 3 5 6 9 9 10
14 7 17 5 20 16 15 17 11 9 36 57 73 15 33 80 61 61 65 60 39 37 49 47 41 37 34 34 30 26 23 18 13 10 12 11 6 6 5 4 5 6 4 8 8 9 12 12 12
20 9 9 11 16 15 40 17 20 32 27 18 10 61 67 69 58 61 67 46 43 32 42 44 40 36 34 32 28 23 19 15 11 8 8 9 2 12 13 8 9 8 5 12 12 10 10 12 16
8 7 17 18 14 18 31 33 30 20 31 50 51 52 61 69 65 63 58 64 64 42 33 32 28 25 28 26 23 17 16 14 9 7 10 13 19 24 18 25 10 6 2 6 13 9 13 15 13
8 8 1 21 28 26 42 32 25 22 11 57 65 61 64 70 61 69 62 70 62 42 40 25 20 16 21 16 17 17 17 19 15 14 14 15 22 29 26 20 10 9 1 8 9 19 15 13 13
11 72 90 25 36 25 18 28 13 24 23 64 68 68 61 49 50 60 67 58 63 51 43 29 30 24 28 18 25 27 28 22 21 22 24 23 25 21 32 28 20 14 13 6 22 18 21 21 20
37 51 31 66 60 35 25 19 16 34 62 59 65 62 61 55 47 43 38 50 48 44 43 37 39 39 35 31 31 32 30 30 27 27 28 28 25 20 15 24 30 17 13 21 25 22 35 37 22
35 72 43 13 38 55 23 17 22 36 54 56 65 60 59 56 52 52 49 44 45 43 46 40 46 45 36 33 31 34 34 29 30 32 29 18 22 18 16 14 24 29 25 31 34 32 29 26 32
61 49 29 20 24 19 47 9 17 31 54 51 54 57 52 54 47 52 53 49 48 44 44 41 45 43 38 37 39 43 44 36 34 33 23 20 25 19 17 16 25 36 33 33 31 25 35 24 21
16 15 7 8 6 20 10 1 8 38 43 46 51 55 56 49 49 47 42 43 47 45 51 46 41 38 37 38 35 32 38 39 27 20 21 25 31 27 28 33 30 27 31 33 31 35 25 32 28
16 6 16 13 6 14 17 5 16 11 36 39 52 52 57 52 52 51 46 44 47 48 48 46 44 40 36 28 30 26 16 23 23 16 19 25 31 30 29 28 25 11 16 26 29 31 31 35 26
16 7 14 14 5 12 25 33 27 35 16 36 44 56 57 57 60 55 47 51 45 47 46 46 43 37 33 32 28 28 25 24 26 23 26 30 31 28 27 23 20 20 24 29 35 34 36 38 25
16 25 26 18 17 15 11 25 30 32 39 26 44 52 46 59 62 56 53 53 55 55 53 44 42 39 37 36 35 33 29 26 30 31 30 30 29 26 26 26 26 30 33 33 36 42 36 29 24
16 16 16 26 21 19 31 29 22 23 26 48 48 58 54 55 62 62 54 57 61 62 47 50 44 43 44 40 33 25 24 26 24 25 27 29 17 25 26 26 27 33 37 39 40 40 34 35 27
15 12 14 23 24 38 24 5 13 13 46 65 21 41 64 53 66 70 62 63 58 63 57 50 49 47 40 40 33 29 28 34 29 27 25 23 22 25 23 22 27 26 28 31 34 35 38 31 26
16 11 43 37 23 13 39 9 19 21 44 16 25 35 57 63 63 73 66 59 66 61 55 52 48 34 32 38 41 40 31 26 19 19 18 22 23 22 23 26 36 29 27 26 27 29 33 32 26
23 37 45 44 9 14 5 8 8 8 11 12 29 37 30 77 70 76 73 59 64 60 63 53 43 30 25 30 38 42 38 31 24 20 22 19 22 23 27 35 37 30 25 24 16 22 25 36 37
9 7 15 11 2 11 1 8 8 11 17 19 18 28 49 48 69 76 70 66 63 58 62 55 45 34 29 28 31 44 42 34 28 28 27 25 26 27 26 31 30 26 26 23 16 14 16 21 25
2 10 7 12 10 4 13 5 15 16 17 31 14 27 82 75 59 60 55 65 52 63 64 60 53 44 35 30 35 36 38 34 35 31 28 29 31 33 28 27 28 26 26 23 18 14 17 19 23
9 10 9 9 6 10 6 6 2 37 45 57 66 57 87 29 48 43 5 8 37 65 67 63 58 43 35 29 34 32 29 35 37 35 30 32 30 33 29 31 29 23 28 20 22 19 17 20 18
12 5 11 8 6 0 6 3 19 33 36 52 12 37 70 58 59 102 77 38 61 59 59 51 46 29 22 19 18 27 33 34 37 32 31 31 40 38 34 32 34 23 26 19 19 17 30 30 18
16 19 8 6 7 7 13 9 6 22 40 44 26 20 48 62 60 58 36 44 52 43 39 39 31 22 14 17 21 27 31 25 22 22 24 26 30 34 35 33 25 25 31 35 32 27 38 33 22
12 10 12 14 9 11 4 6 11 26 25 7 38 62 36 37 49 46 44 37 45 46 41 35 25 19 14 12 12 18 21 17 20 25 26 29 30 28 29 27 31 41 40 42 42 32 74 44 30
20 17 19 10 12 11 12 7 21 21 32 35 3 26 31 31 41 43 37 35 33 28 23 19 16 9 8 7 7 6 4 2 2 5 12 16 20 20 20 20 18 19 31 29 20 33 21 10 22
Wind_Direction_500mb
107 69 55 83 41 28 327 43 79 83 73 66 66 78 80 39 185 155 138 149 156 153 153 151 147 143 139 128 123 122 122 121 115 111 103 98 93 108 112 113 107 105 104 102 107 109 111 116 115
84 92 87 60 59 51 341 305 79 90 105 91 70 88 61 72 102 131 138 162 158 152 153 150 149 147 140 134 126 125 123 120 117 113 107 99 93 103 108 107 105 103 106 110 113 114 111 114 116
110 178 140 141 83 182 166 260 123 82 66 105 84 87 73 109 121 132 148 158 154 153 153 152 151 148 145 141 135 127 123 121 117 115 111 108 100 99 104 109 103 103 106 104 111 115 114 115 116
86 85 116 156 159 242 211 90 64 89 83 95 109 77 113 131 133 141 144 150 155 156 155 154 153 152 150 147 142 132 128 119 119 120 114 109 110 106 107 105 102 107 114 113 113 122 127 124 125
174 106 107 244 109 2 97 82 82 116 112 101 101 113 119 136 141 144 151 151 156 157 159 158 160 157 154 150 146 141 134 129 130 129 126 123 116 109 103 105 111 104 104 118 121 130 142 138 136
243 259 351 207 118 123 50 58 43 119 111 114 104 117 128 143 145 149 151 151 160 152 167 164 161 158 158 156 153 146 145 142 139 133 134 127 125 121 107 100 86 104 122 126 153 166 157 152 157
247 144 293 123 110 93 129 102 125 0 119 123 120 111 139 143 149 151 156 163 165 160 164 170 166 165 166 163 160 160 155 149 148 147 145 139 143 149 155 153 137 56 286 225 207 217 217 219 189
226 77 337 303 133 122 147 121 209 188 122 146 143 151 153 152 152 156 151 154 164 170 170 173 174 173 173 168 169 170 163 159 160 164 154 178 152 152 180 186 144 123 0 307 288 258 245 236 229
121 80 331 289 107 139 150 136 140 124 98 102 125 157 148 154 149 153 160 166 176 173 170 171 179 177 178 178 181 180 176 178 188 186 213 218 316 314 279 297 239 305 0 317 305 291 277 255 247
93 103 169 76 106 141 172 143 120 106 117 108 113 139 147 158 153 156 158 150 167 166 165 173 173 184 189 188 196 202 202 215 221 221 227 243 275 308 287 225 263 278 76 315 294 286 309 286 253
147 183 198 74 79 132 94 91 121 125 110 132 139 150 157 158 160 162 165 162 175 177 171 176 174 176 174 180 195 218 234 242 238 250 238 273 286 286 262 243 238 221 161 328 310 301 287 319 215
171 38 345 31 82 92 129 137 139 142 152 139 143 148 159 170 173 168 170 170 175 168 182 190 190 185 182 208 223 245 263 270 260 263 260 278 281 293 249 264 253 252 267 274 296 282 270 265 253
57 81 24 43 15 351 99 139 120 121 128 138 147 155 165 168 177 174 167 169 168 172 188 191 185 191 197 204 222 241 260 265 267 269 273 280 277 283 291 237 237 217 226 255 263 283 287 284 255
97 83 62 49 309 309 351 136 112 133 134 142 151 164 173 175 181 173 182 184 179 182 183 184 186 192 200 219 230 242 255 260 272 271 273 279 297 274 270 267 236 224 233 247 243 250 282 279 237
97 99 151 160 266 282 347 51 121 144 139 148 160 167 176 182 185 180 186 184 191 185 187 196 195 203 221 240 251 257 262 268 270 265 261 281 294 286 281 266 239 237 244 248 253 261 277 268 257
58 93 334 207 225 291 18 63 14 143 149 160 171 175 178 191 189 181 187 190 192 188 191 200 205 211 230 245 259 278 270 262 271 267 249 265 271 277 286 271 270 253 251 235 245 257 256 267 271
26 74 296 295 176 262 37 9 341 306 171 178 173 179 183 191 188 187 188 193 199 192 192 197 211 220 240 251 260 258 269 258 261 257 247 262 276 272 267 275 277 236 238 231 250 248 260 277 271
186 140 237 267 31 123 8 351 333 320 304 191 179 177 187 191 189 184 190 189 187 186 193 195 209 222 233 249 252 257 262 272 269 261 259 262 270 272 261 267 267 244 226 244 257 257 267 272 274
159 125 163 317 246 149 167 173 265 288 316 270 182 175 188 191 192 187 191 193 196 198 199 207 214 217 222 227 237 245 261 264 268 263 264 263 259 251 253 260 267 250 242 243 255 260 260 255 265
168 143 221 224 252 154 161 203 255 346 322 296 195 181 192 196 188 189 192 197 200 205 206 206 208 211 222 231 241 254 267 264 266 256 253 257 261 243 251 261 278 271 254 251 253 254 253 249 247
132 145 233 229 252 187 156 261 217 185 241 260 219 199 192 200 187 190 195 199 206 208 205 205 206 216 227 229 227 232 243 252 256 259 261 280 252 248 254 268 273 275 266 258 262 252 244 245 243
130 171 257 246 234 155 180 127 223 200 217 218 254 245 205 195 194 188 187 197 206 210 204 204 210 224 230 221 223 224 238 255 264 270 276 264 246 256 260 258 266 264 260 270 280 255 243 240 232
211 191 225 240 263 134 65 90 207 281 292 238 259 254 260 192 197 185 189 192 204 209 202 205 211 221 230 233 226 225 234 248 265 256 255 245 256 254 252 250 262 261 258 267 266 255 251 244 237
348 28 334 279 270 84 89 93 201 200 217 240 241 282 283 222 194 192 193 192 196 207 207 208 208 218 223 229 221 222 233 245 246 248 255 252 255 261 263 259 261 266 261 256 259 259 254 249 243
0 50 341 6 29 281 16 77 239 257 196 201 219 128 254 259 186 183 185 189 193 203 200 211 209 206 214 230 234 226 232 237 245 251 258 260 263 260 266 267 269 267 266 249 246 249 262 252 237
190 189 144 172 220 246 321 191 270 77 48 319 292 201 230 168 105 57 90 208 320 199 199 206 202 202 207 227 239 239 239 241 246 249 259 259 256 262 264 263 272 264 263 251 243 257 269 232 225
158 121 108 123 164 272 225 159 40 56 31 312 300 94 104 128 141 197 217 168 221 191 191 197 190 191 208 228 227 234 247 251 241 235 242 245 245 251 254 253 255 261 267 242 234 252 266 247 237
184 159 122 339 102 294 293 3 112 101 127 260 316 47 108 125 149 175 159 200 137 133 135 150 158 178 225 232 230 234 244 263 272 275 274 275 274 265 263 259 254 278 291 249 215 281 262 243 215
240 187 70 107 143 163 258 83 190 176 198 264 323 328 100 115 133 137 121 129 130 135 142 145 159 181 215 229 220 240 269 274 276 277 275 272 276 279 280 289 266 284 282 268 283 285 252 227 211
201 214 179 135 205 221 158 153 145 160 168 171 262 320 112 112 113 119 118 117 124 133 141 153 163 185 270 254 248 236 253 270 324 308 306 294 290 298 305 310 315 310 292 284 249 264 229 239 216
Wind_Speed_850mb
21 40 43 38 11 7 8 8 17 27 26 54 54 35 31 35 5 11 60 45 56 60 58 55 51 48 43 40 36 32 32 31 29 26 26 24 23 26 27 26 24 24 26 28 31 30 31 34 39
25 38 28 13 8 6 12 13 23 27 45 61 49 47 33 18 47 70 67 47 57 62 59 56 51 46 41 38 34 30 30 29 27 23 24 26 26 28 26 23 22 21 24 27 26 27 27 32 37
29 19 20 6 3 9 12 19 19 32 47 43 20 35 21 30 62 63 69 53 59 59 57 53 50 45 40 35 31 29 28 26 26 26 27 26 24 26 26 22 21 21 22 23 25 26 29 32 36
6 13 13 8 16 14 10 12 20 30 35 49 40 23 37 53 68 71 57 50 52 52 54 53 47 40 35 32 29 28 28 28 28 25 23 23 23 23 23 20 19 19 19 19 19 18 19 23 30
16 9 5 4 13 14 6 21 28 32 41 45 66 40 55 58 74 67 59 48 54 47 52 48 40 36 34 32 30 30 29 26 24 24 22 22 20 19 16 14 13 14 14 14 12 11 13 16 21
16 2 2 5 20 33 9 27 26 39 43 52 61 53 32 70 76 65 56 66 47 42 48 46 41 37 34 33 32 30 29 24 21 19 17 17 15 14 12 9 6 5 5 5 7 10 10 11 13
27 5 8 12 12 14 8 36 13 3 49 41 52 34 44 63 71 63 56 75 60 49 47 43 42 38 34 32 31 27 23 20 18 17 15 14 15 15 14 12 9 1 3 3 5 6 9 9 10
14 7 17 5 20 16 15 17 11 9 36 57 73 15 33 80 61 61 65 60 39 37 49 47 41 37 34 34 30 26 23 18 13 10 12 11 6 6 5 4 5 6 4 8 8 9 12 12 12
20 9 9 11 16 15 40 17 20 32 27 18 10 61 67 69 58 61 67 46 43 32 42 44 40 36 34 32 28 23 19 15 11 8 8 9 2 12 13 8 9 8 5 12 12 10 10 12 16
8 7 17 18 14 18 31 33 30 20 31 50 51 52 61 69 65 63 58 64 64 42 33 32 28 25 28 26 23 17 16 14 9 7 10 13 19 24 18 25 10 6 2 6 13 9 13 15 13
8 8 1 21 28 26 42 32 25 22 11 57 65 61 64 70 61 69 62 70 62 42 40 25 20 16 21 16 17 17 17 19 15 14 14 15 22 29 26 20 10 9 1 8 9 19 15 13 13
11 72 90 25 36 25 18 28 13 24 23 64 68 68 61 49 50 60 67 58 63 51 43 29 30 24 28 18 25 27 28 22 21 22 24 23 25 21 32 28 20 14 13 6 22 18 21 21 20
37 51 31 66 60 35 25 19 16 34 62 59 65 62 61 55 47 43 38 50 48 44 43 37 39 39 35 31 31 32 30 30 27 27 28 28 25 20 15 24 30 17 13 21 25 22 35 37 22
35 72 43 13 38 55 23 17 22 36 54 56 65 60 59 56 52 52 49 44 45 43 46 40 46 45 36 33 31 34 34 29 30 32 29 18 22 18 16 14 24 29 25 31 34 32 29 26 32
61 49 29 20 24 19 47 9 17 31 54 51 54 57 52 54 47 52 53 49 48 44 44 41 45 43 38 37 39 43 44 36 34 33 23 20 25 19 17 16 25 36 33 33 31 25 35 24 21
16 15 7 8 6 20 10 1 8 38 43 46 51 55 56 49 49 47 42 43 47 45 51 46 41 38 37 38 35 32 38 39 27 20 21 25 31 27 28 33 30 27 31 33 31 35 25 32 28
16 6 16 13 6 14 17 5 16 11 36 39 52 52 57 52 52 51 46 44 47 48 48 46 44 40 36 28 30 26 16 23 23 16 19 25 31 30 29 28 25 11 16 26 29 31 31 35 26
16 7 14 14 5 12 25 33 27 35 16 36 44 56 57 57 60 55 47 51 45 47 46 46 43 37 33 32 28 28 25 24 26 23 26 30 31 28 27 23 20 20 24 29 35 34 36 38 25
16 25 26 18 17 15 11 25 30 32 39 26 44 52 46 59 62 56 53 53 55 55 53 44 42 39 37 36 35 33 29 26 30 31 30 30 29 26 26 26 26 30 33 33 36 42 36 29 24
16 16 16 26 21 19 31 29 22 23 26 48 48 58 54 55 62 62 54 57 61 62 47 50 44 43 44 40 33 25 24 26 24 25 27 29 17 25 26 26 27 33 37 39 40 40 34 35 27
15 12 14 23 24 38 24 5 13 13 46 65 21 41 64 53 66 70 62 63 58 63 57 50 49 47 40 40 33 29 28 34 29 27 25 23 22 25 23 22 27 26 28 31 34 35 38 31 26
16 11 43 37 23 13 39 9 19 21 44 16 25 35 57 63 63 73 66 59 66 61 55 52 48 34 32 38 41 40 31 26 19 19 18 22 23 22 23 26 36 29 27 26 27 29 33 32 26
23 37 45 44 9 14 5 8 8 8 11 12 29 37 30 77 70 76 73 59 64 60 63 53 43 30 25 30 38 42 38 31 24 20 22 19 22 23 27 35 37 30 25 24 16 22 25 36 37
9 7 15 11 2 11 1 8 8 11 17 19 18 28 49 48 69 76 70 66 63 58 62 55 45 34 29 28 31 44 42 34 28 28 27 25 26 27 26 31 30 26 26 23 16 14 16 21 25
2 10 7 12 10 4 13 5 15 16 17 31 14 27 82 75 59 60 55 65 52 63 64 60 53 44 35 30 35 36 38 34 35 31 28 29 31 33 28 27 28 26 26 23 18 14 17 19 23
9 10 9 9 6 10 6 6 2 37 45 57 66 57 87 29 48 43 5 8 37 65 67 63 58 43 35 29 34 32 29 35 37 35 30 32 30 33 29 31 29 23 28 20 22 19 17 20 18
12 5 11 8 6 0 6 3 19 33 36 52 12 37 70 58 59 102 77 38 61 59 59 51 46 29 22 19 18 27 33 34 37 32 31 31 40 38 34 32 34 23 26 19 19 17 30 30 18
16 19 8 6 7 7 13 9 6 22 40 44 26 20 48 62 60 58 36 44 52 43 39 39 31 22 14 17 21 27 31 25 22 22 24 26 30 34 35 33 25 25 31 35 32 27 38 33 22
12 10 12 14 9 11 4 6 11 26 25 7 38 62 36 37 49 46 44 37 45 46 41 35 25 19 14 12 12 18 21 17 20 25 26 29 30 28 29 27 31 41 40 42 42 32 74 44 30
20 17 19 10 12 11 12 7 21 21 32 35 3 26 31 31 41 43 37 35 33 28 23 19 16 9 8 7 7 6 4 2 2 5 12 16 20 20 20 20 18 19 31 29 20 33 21 10 22
Wind_Direction_850mb
107 69 55 83 41 28 327 43 79 83 73 66 66 78 80 39 185 155 138 149 156 153 153 151 147 143 139 128 123 122 122 121 115 111 103 98 93 108 112 113 107 105 104 102 107 109 111 116 115
84 92 87 60 59 51 341 305 79 90 105 91 70 88 61 72 102 131 138 162 158 152 153 150 149 147 140 134 126 125 123 120 117 113 107 99 93 103 108 107 105 103 106 110 113 114 111 114 116
110 178 140 141 83 182 166 260 123 82 66 105 84 87 73 109 121 132 148 158 154 153 153 152 151 148 145 141 135 127 123 121 117 115 111 108 100 99 104 109 103 103 106 104 111 115 114 115 116
86 85 116 156 159 242 211 90 64 89 83 95 109 77 113 131 133 141 144 150 155 156 155 154 153 152 150 147 142 132 128 119 119 120 114 109 110 106 107 105 102 107 114 113 113 122 127 124 125
174 106 107 244 109 2 97 82 82 116 112 101 101 113 119 136 141 144 151 151 156 157 159 158 160 157 154 150 146 141 134 129 130 129 126 123 116 109 103 105 111 104 104 118 121 130 142 138 136
243 259 351 207 118 123 50 58 43 119 111 114 104 117 128 143 145 149 151 151 160 152 167 164 161 158 158 156 153 146 145 142 139 133 134 127 125 121 107 100 86 104 122 126 153 166 157 152 157
247 144 293 123 110 93 129 102 125 0 119 123 120 111 139 143 149 151 156 163 165 160 164 170 166 165 166 163 160 160 155 149 148 147 145 139 143 149 155 153 137 56 286 225 207 217 217 219 189
226 77 337 303 133 122 147 121 209 188 122 146 143 151 153 152 152 156 151 154 164 170 170 173 174 173 173 168 169 170 163 159 160 164 154 178 152 152 180 186 144 123 0 307 288 258 245 236 229
121 80 331 289 107 139 150 136 140 124 98 102 125 157 148 154 149 153 160 166 176 173 170 171 179 177 178 178 181 180 176 178 188 186 213 218 316 314 279 297 239 305 0 317 305 291 277 255 247
93 103 169 76 106 141 172 143 120 106 117 108 113 139 147 158 153 156 158 150 167 166 165 173 173 184 189 188 196 202 202 215 221 221 227 243 275 308 287 225 263 278 76 315 294 286 309 286 253
147 183 198 74 79 132 94 91 121 125 110 132 139 150 157 158 160 162 165 162 175 177 171 176 174 176 174 180 195 218 234 242 238 250 238 273 286 286 262 243 238 221 161 328 310 301 287 319 215
171 38 345 31 82 92 129 137 139 142 152 139 143 148 159 170 173 168 170 170 175 168 182 190 190 185 182 208 223 245 263 270 260 263 260 278 281 293 249 264 253 252 267 274 296 282 270 265 253
57 81 24 43 15 351 99 139 120 121 128 138 147 155 165 168 177 174 167 169 168 172 188 191 185 191 197 204 222 241 260 265 267 269 273 280 277 283 291 237 237 217 226 255 263 283 287 284 255
97 83 62 49 309 309 351 136 112 133 134 142 151 164 173 175 181 173 182 184 179 182 183 184 186 192 200 219 230 242 255 260 272 271 273 279 297 274 270 267 236 224 233 247 243 250 282 279 237
97 99 151 160 266 282 347 51 121 144 139 148 160 167 176 182 185 180 186 184 191 185 187 196 195 203 221 240 251 257 262 268 270 265 261 281 294 286 281 266 239 237 244 248 253 261 277 268 257
58 93 334 207 225 291 18 63 14 143 149 160 171 175 178 191 189 181 187 190 192 188 191 200 205 211 230 245 259 278 270 262 271 267 249 265 271 277 286 271 270 253 251 235 245 257 256 267 271
26 74 296 295 176 262 37 9 341 306 171 178 173 179 183 191 188 187 188 193 199 192 192 197 211 220 240 251 260 258 269 258 261 257 247 262 276 272 267 275 277 236 238 231 250 248 260 277 271
186 140 237 267 31 123 8 351 333 320 304 191 179 177 187 191 189 184 190 189 187 186 193 195 209 222 233 249 252 257 262 272 269 261 259 262 270 272 261 267 267 244 226 244 257 257 267 272 274
159 125 163 317 246 149 167 173 265 288 316 270 182 175 188 191 192 187 191 193 196 198 199 207 214 217 222 227 237 245 261 264 268 263 264 263 259 251 253 260 267 250 242 243 255 260 260 255 265
168 143 221 224 252 154 161 203 255 346 322 296 195 181 192 196 188 189 192 197 200 205 206 206 208 211 222 231 241 254 267 264 266 256 253 257 261 243 251 261 278 271 254 251 253 254 253 249 247
132 145 233 229 252 187 156 261 217 185 241 260 219 199 192 200 187 190 195 199 206 208 205 205 206 216 227 229 227 232 243 252 256 259 261 280 252 248 254 268 273 275 266 258 262 252 244 245 243
130 171 257 246 234 155 180 127 223 200 217 218 254 245 205 195 194 188 187 197 206 210 204 204 210 224 230 221 223 224 238 255 264 270 276 264 246 256 260 258 266 264 260 270 280 255 243 240 232
211 191 225 240 263 134 65 90 207 281 292 238 259 254 260 192 197 185 189 192 204 209 202 205 211 221 230 233 226 225 234 248 265 256 255 245 256 254 252 250 262 261 258 267 266 255 251 244 237
348 28 334 279 270 84 89 93 201 200 217 240 241 282 283 222 194 192 193 192 196 207 207 208 208 218 223 229 221 222 233 245 246 248 255 252 255 261 263 259 261 266 261 256 259 259 254 249 243
0 50 341 6 29 281 16 77 239 257 196 201 219 128 254 259 186 183 185 189 193 203 200 211 209 206 214 230 234 226 232 237 245 251 258 260 263 260 266 267 269 267 266 249 246 249 262 252 237
190 189 144 172 220 246 321 191 270 77 48 319 292 201 230 168 105 57 90 208 320 199 199 206 202 202 207 227 239 239 239 241 246 249 259 259 256 262 264 263 272 264 263 251 243 257 269 232 225
158 121 108 123 164 272 225 159 40 56 31 312 300 94 104 128 141 197 217 168 221 191 191 197 190 191 208 228 227 234 247 251 241 235 242 245 245 251 254 253 255 261 267 242 234 252 266 247 237
184 159 122 339 102 294 293 3 112 101 127 260 316 47 108 125 149 175 159 200 137 133 135 150 158 178 225 232 230 234 244 263 272 275 274 275 274 265 263 259 254 278 291 249 215 281 262 243 215
240 187 70 107 143 163 258 83 190 176 198 264 323 328 100 115 133 137 121 129 130 135 142 145 159 181 215 229 220 240 269 274 276 277 275 272 276 279 280 289 266 284 282 268 283 285 252 227 211
201 214 179 135 205 221 158 153 145 160 168 171 262 320 112 112 113 119 118 117 124 133 141 153 163 185 270 254 248 236 253 270 324 308 306 294 290 298 305 310 315 310 292 284 249 264 229 239 216